Content
SEND FEEDBACK

Daily
Averages
Monthly
Summary
Turkmenistan

ASHGABAT, TURKMENISTAN


Home > Asia > Turkmenistan
Elevation: 236 meters     Latitude: 37 58N     Longitude: 058 20E

WEATHER
 
SELECT A DAY
Number of Records: 177,354;   Date Range: 3/15/97 - 8/12/14
 
SHARE

PRINT THIS DATA

[ ← Previous Day ]
WEATHER ALMANAC - 8 MARCH, 2013
[ Next Day → ]
[ °F ]   °C
Weather ElementAverageHighLow
Temperature-0.7 °C4 °C (6:00 pm)-3.3 °C (2:00 am)
Dewpoint-3.9 °C-2 °C (12:30 pm)-6 °C (4:00 am)
Humidity78.1 %93 % (1:00 am)47 % (5:00 pm)
Barometer1029.8 hPa1035.6 hPa (2:00 am)1026.1 hPa (5:00 pm)
Wind Speed10.9 km/h18 km/h (10:00 pm)
Weather ElementAverage
Visibility9.8 km
Wind DirectionESE (114.1 °)

Weather ElementTotal
Precipitation---
Heating Degree Days18 (Base 18.3)
Averaged from 41 records on 8 March, 2013
WEATHER CONDITIONS BREAKOUT
WIND DIRECTION BREAKOUT
WEATHER BY HOUR - 8 MARCH, 2013
[ °F ]   °C
Local TimeTemperatureDewpointHumidityBarometerVisibilityWind DirectionWind SpeedGust SpeedPrecipitationEventsConditions
1:00 AM-3 °C-4 °C93 %1034.2 hPa10 kmSE (140°)14.3 km/hSnowLight Snow
2:00 AM-3.3 °C-5 °C83 %1035.6 hPa9.7 kmSE (130°)10.8 km/hSnowLight Snow
2:00 AM-3 °C-5 °C86 %1033.2 hPa10 kmESE (120°)14.3 km/hSnowLight Snow
3:00 AM-3 °C-5 °C86 %1032.2 hPa10 kmESE (120°)7.2 km/hOvercast
4:00 AM-3 °C-6 °C80 %1032.2 hPa10 kmESE (110°)10.8 km/hOvercast
5:00 AM-3 °C-6 °C80 %1031.2 hPa10 kmESE (120°)10.8 km/hSnowLight Snow
5:00 AM-2.8 °C-4.4 °C85 %1033.2 hPa9.7 kmEast (100°)10.8 km/hSnowLight Snow
5:30 AM-3 °C-5 °C86 %1031.2 hPa10 kmEast (100°)7.2 km/hSnowLight Snow
6:00 AM-3 °C-5 °C86 %1031.2 hPa10 kmEast (100°)10.8 km/hSnowLight Snow
6:30 AM-3 °C-5 °C86 %1031.2 hPa10 kmSE (130°)7.2 km/hSnowLight Snow
7:00 AM-3 °C-5 °C86 %1031.2 hPa10 kmSE (140°)10.8 km/hSnowLight Snow
7:30 AM-3 °C-5 °C86 %1031.2 hPa10 kmESE (120°)10.8 km/hSnowLight Snow
8:00 AM-2.8 °C-5.6 °C75 %1033.2 hPa9.7 kmESE (110°)14.3 km/hSnowLight Snow
8:00 AM-3 °C-5 °C86 %1030.1 hPa6.9 kmESE (110°)14.3 km/hSnowLight Snow
8:30 AM-3 °C-4 °C93 %1030.1 hPa10 kmESE (120°)14.3 km/hSnowLight Snow
9:00 AM-3 °C-4 °C93 %1031.2 hPa10 kmESE (120°)14.3 km/hSnowLight Snow
9:30 AM-2 °C-4 °C86 %1031.2 hPa10 kmSE (130°)14.3 km/hSnowLight Snow
10:00 AM-2 °C-4 °C86 %1031.2 hPa10 kmESE (120°)14.3 km/hOvercast
10:30 AM-2 °C-4 °C86 %1031.2 hPa10 kmSE (130°)14.3 km/hOvercast
11:00 AM-1 °C-4 °C80 %1031.2 hPa10 kmSE (140°)10.8 km/hSnowLight Snow
11:00 AM-1.1 °C-5 °C66 %1032.5 hPa9.7 kmEast (80°)7.2 km/hSnowLight Snow
11:30 AM-1 °C-4 °C80 %1030.1 hPa10 kmSE (130°)7.2 km/hSnowLight Snow
12:00 PM0 °C-4 °C75 %1030.1 hPa10 kmEast (80°)7.2 km/hMostly Cloudy
12:30 PM1 °C-2 °C81 %1029.1 hPa10 kmESE (110°)10.8 km/hMostly Cloudy
1:00 PM1 °C-3 °C75 %1029.1 hPa10 kmENE (70°)10.8 km/hMostly Cloudy
1:30 PM1 °C-3 °C75 %1029.1 hPa10 kmEast (100°)10.8 km/hMostly Cloudy
2:00 PM1.7 °C-2.2 °C68 %1030.1 hPa9.7 kmESE (110°)10.8 km/hPartly Cloudy
2:00 PM2 °C-3 °C70 %1028.1 hPa10 kmESE (110°)10.8 km/hMostly Cloudy
2:30 PM2 °C-2 °C75 %1027.1 hPa10 kmENE (70°)10.8 km/hScattered Clouds
3:00 PM3 °C-2 °C70 %1027.1 hPa10 kmEast (80°)7.2 km/hMostly Cloudy
4:00 PM3 °C-3 °C65 %1027.1 hPa10 kmSSE (160°)7.2 km/hMostly Cloudy
5:00 PM3.9 °C-3.3 °C47 %1027.8 hPa9.7 kmEast (90°)7.2 km/hPartly Cloudy
5:00 PM3 °C-2 °C70 %1026.1 hPa10 kmESE (110°)7.2 km/hMostly Cloudy
6:00 PM4 °C-3 °C61 %1026.1 hPa10 kmEast (80°)10.8 km/hScattered Clouds
7:00 PM2 °C-3 °C70 %1026.1 hPa10 kmESE (110°)10.8 km/hPartly Cloudy
8:00 PM1 °C-3 °C75 %1027.1 hPa10 kmSE (130°)10.8 km/hClear
8:00 PM1.1 °C-3.9 °C59 %1028.1 hPa9.7 kmSSE (150°)10.8 km/h
9:00 PM1 °C-4 °C70 %1027.1 hPa10 kmSE (140°)10.8 km/hClear
10:00 PM0 °C-2 °C87 %1027.1 hPa10 kmESE (120°)18 km/hClear
11:00 PM0 °C-3.3 °C69 %1028.8 hPa9.7 kmESE (120°)10.8 km/h
11:00 PM-1 °C-3 °C86 %1026.1 hPa10 kmESE (120°)10.8 km/hClear
Hourly data recorded from UTAA, located 0 kilometers away from Ashgabat, Turkmenistan







STORIES FROM OUR PARTNERS